SZ-12 MODULE (49221 NORAD) Tracking and Keplerian Element Data

This shows tracking and keplerian element data for the satellite.

Feedback or suggestion? Click here.




ElementValue
Catalog49221
NameSZ-12 MODULE
Epoch Orbit435
Epoch Day288.11283148
Epoch Year2021
RAAN272.1939
Inclination41.5559
Eccentricity0.0004099
Argument of Perigee144.5879
Mean Anonmoly215.5234
Mean Motion15.60504461
Decay Rate0.00010214
L11 49221U 21053C 21288.11283148 .00010214 00000-0 12431-3 0 9990
L22 49221 41.5559 272.1939 0004099 144.5879 215.5234 15.60504461 4358

Live tracking and technical data element details for SZ-12 MODULE (NORAD 49221). SZ-12 MODULE can be tracked NOW for your location showing map with azimuth and elevation plus other details from your city location.

Track the satellite on the map from your city or location and see movement details for azimuth, elevation, latitude, longitude, range, height, and movement on the map or in text.







IsCatalogInMostPopularTable: catalog: 49221, numindb: 6
Update: records affected: 1



GetName: 49221 SZ-12 MODULE

Hit Count: updated at: Tue, 19 Oct 2021 09:04:16 GMT